Location: *
(45.8589°N, 4.7139°E)
Time: 02:14:22
(UTC+00:00)

Cosmos 1437 - Pass Details

Date: 09 April 2020
Orbit: 373 x 376 km, 81.2° (Epoch: 05 June)

Event Time Altitude Azimuth Distance (km) Brightness Sun altitude
Rises 19:07:09 0° 342° (NNW) 2,257 7.1 -8.6°
Reaches altitude 10° 19:09:12 10° 335° (NNW) 1,398 6.1 -8.9°
Maximum altitude 19:12:04 40° 264° (W) 571 4.0 -9.4°
Drops below altitude 10° 19:14:54 10° 193° (SSW) 1,381 5.3 -9.8°
Sets 19:16:56 0° 185° (S) 2,224 6.2 -10.2°
